When you browse on this site, cookies collect data to enhance your experience and personalize the content and advertising you see.
Visit our Privacy Policy to learn more. By continuing to use the site, you agree to this use of cookies and data.
  • In Latvia
  • List of Countries
  • For 7 days
  • Water Temperature
  • Weather Map
  • Weather Widgets
  • user-avatar
    Login

    Hourly Weather Uryl

    Today, 4 April, Saturday

    Time Temperature Precipitation Wind Pressure Humidity
    00:00 +1°C° 0 mm 2 mps 676 mmHg 34%
    01:00 -1°C° 0 mm 2 mps 676 mmHg 34%
    02:00 -1°C° 0 mm 2 mps 675 mmHg 34%
    03:00 -1°C° 0 mm 2 mps 675 mmHg 34%
    04:00 -1°C° 0 mm 2 mps 676 mmHg 35%
    05:00 -1°C° 0 mm 2 mps 676 mmHg 36%
    06:00 -1°C° 0 mm 2 mps 676 mmHg 37%
    07:00 +2°C° 0 mm 2 mps 676 mmHg 42%
    08:00 +3°C° 0 mm 2 mps 676 mmHg 48%
    09:00 +6°C° 0 mm 1 mps 676 mmHg 54%
    10:00 +7°C° 0 mm 1 mps 676 mmHg 57%
    11:00 +8°C° 0 mm 1 mps 676 mmHg 60%
    12:00 +9°C° 0 mm 1 mps 676 mmHg 63%
    13:00 +9°C° 0 mm 1 mps 676 mmHg 62%
    14:00 +9°C° 0 mm 0 mps 675 mmHg 60%
    15:00 +9°C° 0 mm 0 mps 675 mmHg 58%
    16:00 +8°C° 0 mm 0 mps 675 mmHg 57%
    17:00 +7°C° 0 mm 0 mps 674 mmHg 56%
    18:00 +6°C° 0 mm 0 mps 674 mmHg 55%
    19:00 +6°C° 0 mm 1 mps 674 mmHg 55%
    20:00 +5°C° 0 mm 1 mps 674 mmHg 55%
    21:00 +4°C° 0 mm 1 mps 675 mmHg 55%
    22:00 +4°C° 0 mm 1 mps 674 mmHg 54%
    23:00 +4°C° 0 mm 1 mps 674 mmHg 54%

    Tomorrow, 5 April, Sunday

    Time Temperature Precipitation Wind Pressure Humidity
    00:00 +2°C° 0 mm 2 mps 674 mmHg 53%
    01:00 +2°C° 0 mm 2 mps 674 mmHg 52%
    02:00 +3°C° 0 mm 1 mps 673 mmHg 51%
    03:00 +2°C° 0 mm 1 mps 673 mmHg 50%
    04:00 +2°C° 0 mm 1 mps 673 mmHg 49%
    05:00 +2°C° 0 mm 1 mps 673 mmHg 48%
    06:00 +2°C° 0 mm 1 mps 673 mmHg 47%
    07:00 +4°C° 0 mm 1 mps 672 mmHg 47%
    08:00 +5°C° 0 mm 1 mps 672 mmHg 46%
    09:00 +7°C° 0 mm 1 mps 672 mmHg 46%
    10:00 +8°C° 0 mm 1 mps 672 mmHg 50%
    11:00 +8°C° 0 mm 1 mps 672 mmHg 54%
    12:00 +9°C° 0 mm 1 mps 671 mmHg 59%
    13:00 +9°C° 0 mm 1 mps 671 mmHg 58%
    14:00 +10°C° 0 mm 1 mps 671 mmHg 58%
    15:00 +10°C° 0 mm 1 mps 670 mmHg 58%
    16:00 +9°C° 0 mm 1 mps 670 mmHg 58%
    17:00 +8°C° 0 mm 1 mps 670 mmHg 58%
    18:00 +7°C° 0 mm 1 mps 670 mmHg 57%
    19:00 +6°C° 0 mm 1 mps 670 mmHg 56%
    20:00 +5°C° 0 mm 1 mps 670 mmHg 54%
    21:00 +4°C° 0 mm 1 mps 671 mmHg 53%
    22:00 +4°C° 0 mm 1 mps 671 mmHg 52%
    23:00 +4°C° 0 mm 1 mps 671 mmHg 52%

    Day after tomorrow, 6 April, Monday

    Time Temperature Precipitation Wind Pressure Humidity
    00:00 +4°C° 0 mm 1 mps 671 mmHg 51%
    01:00 +4°C° 0 mm 1 mps 671 mmHg 50%
    02:00 +3°C° 0 mm 1 mps 671 mmHg 49%
    03:00 +3°C° 0 mm 1 mps 670 mmHg 47%
    04:00 +3°C° 0 mm 1 mps 671 mmHg 46%
    05:00 +3°C° 0 mm 1 mps 671 mmHg 46%
    06:00 +3°C° 0 mm 1 mps 671 mmHg 45%
    07:00 +5°C° 0 mm 1 mps 671 mmHg 45%
    08:00 +6°C° 0 mm 1 mps 671 mmHg 45%
    09:00 +8°C° 0 mm 1 mps 671 mmHg 45%
    10:00 +8°C° 0 mm 1 mps 671 mmHg 49%
    11:00 +8°C° 0 mm 0 mps 671 mmHg 52%
    12:00 +9°C° 0 mm 0 mps 671 mmHg 56%
    13:00 +9°C° 0 mm 0 mps 671 mmHg 56%
    14:00 +9°C° 0 mm 0 mps 670 mmHg 56%
    15:00 +10°C° 0 mm 0 mps 670 mmHg 56%
    16:00 +9°C° 0 mm 0 mps 670 mmHg 56%
    17:00 +8°C° 0 mm 0 mps 670 mmHg 56%
    18:00 +7°C° 0 mm 0 mps 670 mmHg 55%
    19:00 +6°C° 0 mm 0 mps 670 mmHg 55%
    20:00 +7°C° 0 mm 1 mps 671 mmHg 54%
    21:00 +6°C° 0 mm 1 mps 671 mmHg 54%
    22:00 +6°C° 0 mm 1 mps 671 mmHg 53%
    23:00 +6°C° 0 mm 1 mps 671 mmHg 53%

    7 April, Tuesday

    Time Temperature Precipitation Wind Pressure Humidity
    00:00 +6°C° 0 mm 1 mps 671 mmHg 52%
    01:00 +5°C° 0 mm 1 mps 671 mmHg 52%
    02:00 +5°C° 0 mm 1 mps 670 mmHg 51%
    03:00 +5°C° 0 mm 1 mps 670 mmHg 51%
    04:00 +5°C° 0 mm 1 mps 670 mmHg 51%
    05:00 +5°C° 0 mm 1 mps 670 mmHg 50%
    06:00 +5°C° 0 mm 1 mps 670 mmHg 50%
    07:00 +7°C° 0 mm 1 mps 670 mmHg 50%
    08:00 +8°C° 0 mm 1 mps 670 mmHg 50%
    09:00 +9°C° 0 mm 1 mps 670 mmHg 49%
    10:00 +10°C° 0 mm 1 mps 670 mmHg 52%
    11:00 +10°C° 0 mm 0 mps 670 mmHg 55%
    12:00 +11°C° 0 mm 0 mps 670 mmHg 58%
    13:00 +11°C° 0 mm 0 mps 670 mmHg 58%
    14:00 +11°C° 0 mm 0 mps 669 mmHg 59%
    15:00 +12°C° 0 mm 0 mps 669 mmHg 60%
    16:00 +12°C° 0 mm 1 mps 669 mmHg 60%
    17:00 +11°C° 0 mm 1 mps 669 mmHg 60%
    18:00 +11°C° 0 mm 1 mps 669 mmHg 60%
    19:00 +10°C° 0 mm 1 mps 669 mmHg 60%
    20:00 +9°C° 0 mm 1 mps 669 mmHg 61%
    21:00 +8°C° 0 mm 1 mps 670 mmHg 62%
    22:00 +8°C° 0 mm 1 mps 670 mmHg 62%
    23:00 +7°C° 0 mm 1 mps 670 mmHg 63%

    8 April, Wednesday

    Time Temperature Precipitation Wind Pressure Humidity
    00:00 +7°C° 0 mm 1 mps 670 mmHg 63%
    01:00 +7°C° 0 mm 1 mps 669 mmHg 63%
    02:00 +7°C° 0 mm 1 mps 669 mmHg 63%
    03:00 +6°C° 0 mm 1 mps 669 mmHg 63%
    04:00 +5°C° 0 mm 2 mps 669 mmHg 62%
    05:00 +5°C° 0 mm 2 mps 669 mmHg 62%
    06:00 +5°C° 0 mm 2 mps 669 mmHg 61%
    07:00 +7°C° 0 mm 2 mps 669 mmHg 58%
    08:00 +8°C° 0 mm 2 mps 669 mmHg 56%
    09:00 +10°C° 0 mm 2 mps 669 mmHg 53%
    10:00 +12°C° 0 mm 2 mps 669 mmHg 53%
    11:00 +13°C° 0 mm 2 mps 668 mmHg 52%
    12:00 +14°C° 0 mm 1 mps 668 mmHg 52%
    13:00 +14°C° 0 mm 1 mps 668 mmHg 49%
    14:00 +15°C° 0 mm 1 mps 668 mmHg 47%
    15:00 +15°C° 0 mm 1 mps 668 mmHg 44%
    16:00 +14°C° 0 mm 1 mps 668 mmHg 46%
    17:00 +13°C° 0 mm 1 mps 668 mmHg 48%
    18:00 +12°C° 0 mm 1 mps 668 mmHg 50%
    19:00 +11°C° 0 mm 1 mps 668 mmHg 52%
    20:00 +10°C° 0 mm 1 mps 669 mmHg 55%
    21:00 +9°C° 0 mm 1 mps 669 mmHg 57%
    22:00 +8°C° 0 mm 1 mps 669 mmHg 60%
    23:00 +8°C° 0 mm 1 mps 670 mmHg 62%

    9 April, Thursday

    Time Temperature Precipitation Wind Pressure Humidity
    00:00 +7°C° 0 mm 1 mps 670 mmHg 64%
    01:00 +7°C° 0 mm 1 mps 670 mmHg 70%
    02:00 +6°C° 0 mm 1 mps 670 mmHg 76%
    03:00 +4°C° 0 mm 2 mps 670 mmHg 82%
    04:00 +4°C° 0 mm 2 mps 670 mmHg 85%
    05:00 +5°C° 0 mm 1 mps 671 mmHg 89%
    06:00 +5°C° 0 mm 1 mps 671 mmHg 92%
    07:00 +5°C° 0 mm 1 mps 671 mmHg 92%
    08:00 +6°C° 0 mm 1 mps 671 mmHg 92%
    09:00 +6°C° 0 mm 1 mps 671 mmHg 91%
    10:00 +7°C° 0 mm 1 mps 671 mmHg 89%
    11:00 +7°C° 0 mm 1 mps 671 mmHg 87%
    12:00 +8°C° 0 mm 1 mps 671 mmHg 84%
    13:00 +8°C° 0.1 mm 1 mps 671 mmHg 85%
    14:00 +7°C° 0.1 mm 2 mps 671 mmHg 85%
    15:00 +7°C° 0.1 mm 2 mps 671 mmHg 86%
    16:00 +7°C° 0.4 mm 1 mps 671 mmHg 89%
    17:00 +7°C° 0.4 mm 1 mps 671 mmHg 93%
    18:00 +6°C° 0.4 mm 1 mps 671 mmHg 96%
    19:00 +6°C° 0.8 mm 1 mps 672 mmHg 97%
    20:00 +5°C° 0.8 mm 1 mps 672 mmHg 97%
    21:00 +5°C° 0.8 mm 1 mps 672 mmHg 97%
    22:00 +5°C° 1.2 mm 1 mps 672 mmHg 97%
    23:00 +4°C° 1.2 mm 1 mps 672 mmHg 97%
    Show more